�������l�o���
Date,Time,MP-1(��Sv/h),MP-2(��Sv/h),MP-3(��Sv/h),MP-4(��Sv/h),MP-5(��Sv/h),MP-6(��Sv/h),MP-7(��Sv/h),����,����(m/s),���J
2022/06/09,00:00,0.147,0.135,0.210,0.205,0.209,0.116,0.074,�k,4.1,�L
2022/06/09,00:10,0.146,0.134,0.210,0.205,0.210,0.116,0.074,�k�k��,4.6,�L
2022/06/09,00:20,0.146,0.135,0.210,0.205,0.210,0.115,0.075,�k�k��,4.6,�L
2022/06/09,00:30,0.146,0.135,0.211,0.205,0.210,0.115,0.075,�k�k��,4.7,�L
2022/06/09,00:40,0.145,0.135,0.211,0.206,0.210,0.116,0.074,�k�k��,4.0,�L
2022/06/09,00:50,0.147,0.134,0.210,0.205,0.209,0.116,0.074,�k�k��,4.2,�L
2022/06/09,01:00,0.145,0.134,0.211,0.205,0.211,0.116,0.075,�k�k��,4.2,�L
2022/06/09,01:10,0.146,0.135,0.210,0.205,0.209,0.116,0.074,�k��,5.0,�L
2022/06/09,01:20,0.146,0.134,0.211,0.205,0.211,0.116,0.074,�k�k��,5.4,�L
2022/06/09,01:30,0.145,0.134,0.211,0.204,0.209,0.116,0.075,�k�k��,5.6,�L
2022/06/09,01:40,0.146,0.134,0.211,0.205,0.209,0.116,0.074,�k�k��,5.3,�L
2022/06/09,01:50,0.145,0.134,0.211,0.205,0.210,0.116,0.075,�k�k��,5.2,�L
2022/06/09,02:00,0.145,0.134,0.210,0.205,0.211,0.116,0.074,�k�k��,5.7,�L
2022/06/09,02:10,0.145,0.135,0.210,0.206,0.211,0.116,0.075,�k�k��,5.3,�L
2022/06/09,02:20,0.145,0.135,0.212,0.206,0.210,0.116,0.074,�k�k��,5.3,�L
2022/06/09,02:30,0.146,0.135,0.209,0.205,0.210,0.117,0.075,�k�k��,5.2,�L
2022/06/09,02:40,0.146,0.135,0.211,0.204,0.210,0.116,0.075,�k�k��,5.3,�L
2022/06/09,02:50,0.146,0.135,0.210,0.206,0.210,0.116,0.074,�k�k��,4.8,�L
2022/06/09,03:00,0.145,0.135,0.210,0.205,0.211,0.116,0.075,�k�k��,5.1,�L
2022/06/09,03:10,0.146,0.134,0.211,0.205,0.210,0.116,0.075,�k�k��,4.9,�L
2022/06/09,03:20,0.146,0.136,0.209,0.205,0.209,0.116,0.074,�k�k��,5.2,�L
2022/06/09,03:30,0.145,0.135,0.210,0.205,0.209,0.116,0.075,�k�k��,6.2,�L
2022/06/09,03:40,0.147,0.135,0.211,0.206,0.213,0.116,0.075,�k�k��,6.0,�L
2022/06/09,03:50,0.146,0.135,0.211,0.207,0.211,0.116,0.074,�k�k��,5.8,�L
2022/06/09,04:00,0.145,0.134,0.211,0.204,0.210,0.117,0.075,�k�k��,5.6,�L
2022/06/09,04:10,0.146,0.134,0.211,0.207,0.211,0.117,0.075,�k�k��,5.9,�L
2022/06/09,04:20,0.145,0.134,0.209,0.205,0.211,0.116,0.075,�k�k��,5.7,�L
2022/06/09,04:30,0.146,0.135,0.211,0.207,0.212,0.117,0.074,�k�k��,5.5,�L
2022/06/09,04:40,0.146,0.136,0.211,0.207,0.210,0.117,0.075,�k�k��,5.9,�L
2022/06/09,04:50,0.147,0.135,0.212,0.207,0.213,0.118,0.076,�k�k��,5.7,�L
2022/06/09,05:00,0.146,0.137,0.211,0.208,0.210,0.117,0.076,�k�k��,6.3,�L
2022/06/09,05:10,0.146,0.137,0.211,0.206,0.211,0.118,0.077,�k�k��,5.9,�L
2022/06/09,05:20,0.147,0.135,0.212,0.207,0.212,0.118,0.077,�k�k��,6.0,�L
2022/06/09,05:30,0.147,0.136,0.212,0.207,0.211,0.118,0.076,�k�k��,5.5,�L
2022/06/09,05:40,0.147,0.137,0.211,0.206,0.213,0.118,0.076,�k�k��,5.5,�L
2022/06/09,05:50,0.148,0.136,0.211,0.207,0.210,0.118,0.076,�k�k��,5.3,�L
2022/06/09,06:00,0.147,0.137,0.212,0.206,0.211,0.119,0.076,�k�k��,5.1,�L
2022/06/09,06:10,0.148,0.137,0.212,0.207,0.211,0.119,0.076,�k�k��,5.2,�L
2022/06/09,06:20,0.147,0.137,0.212,0.208,0.212,0.119,0.077,�k�k��,5.2,�L
2022/06/09,06:30,0.149,0.138,0.211,0.206,0.213,0.119,0.078,�k�k��,4.6,�L
2022/06/09,06:40,0.149,0.138,0.212,0.206,0.212,0.119,0.078,�k��,5.1,�L
2022/06/09,06:50,0.149,0.138,0.211,0.206,0.213,0.120,0.079,�k�k��,4.2,�L
2022/06/09,07:00,0.150,0.138,0.211,0.207,0.211,0.120,0.078,�k�k��,3.9,�L
2022/06/09,07:10,0.147,0.137,0.212,0.206,0.214,0.119,0.078,�k,4.0,�L
2022/06/09,07:20,0.150,0.138,0.211,0.206,0.212,0.120,0.078,��,2.8,�L
2022/06/09,07:30,0.149,0.138,0.212,0.206,0.213,0.119,0.077,�k�k��,4.2,�L
2022/06/09,07:40,0.149,0.137,0.210,0.206,0.211,0.119,0.078,�k�k��,3.1,�L
2022/06/09,07:50,0.148,0.137,0.210,0.206,0.213,0.118,0.078,�k�k��,3.4,�L
2022/06/09,08:00,0.146,0.137,0.210,0.205,0.212,0.118,0.077,�k�k��,2.8,�L
2022/06/09,08:10,0.147,0.136,0.208,0.206,0.211,0.117,0.077,�k�k��,2.5,�L
2022/06/09,08:20,0.147,0.136,0.209,0.204,0.211,0.117,0.075,�k,2.4,�L
2022/06/09,08:30,0.147,0.135,0.209,0.204,0.209,0.116,0.076,�k�k��,2.9,�L
2022/06/09,08:40,0.145,0.136,0.209,0.205,0.211,0.117,0.075,�k�k��,4.1,�L
2022/06/09,08:50,0.145,0.135,0.210,0.203,0.209,0.117,0.076,�k��,4.3,�L
2022/06/09,09:00,0.146,0.135,0.208,0.204,0.211,0.116,0.075,�k�k��,4.0,�L
2022/06/09,09:10,0.146,0.135,0.208,0.205,0.209,0.116,0.075,�k��,3.8,�L
2022/06/09,09:20,0.146,0.135,0.208,0.204,0.210,0.116,0.075,�k�k��,4.1,�L
2022/06/09,09:30,0.146,0.134,0.208,0.204,0.210,0.116,0.075,�k�k��,2.6,�L
2022/06/09,09:40,0.147,0.135,0.209,0.203,0.210,0.116,0.076,�k,2.4,�L
2022/06/09,09:50,0.146,0.135,0.208,0.205,0.211,0.116,0.075,�k,3.8,�L
2022/06/09,10:00,0.145,0.135,0.208,0.203,0.210,0.117,0.075,�k,4.2,�L
2022/06/09,10:10,0.145,0.135,0.207,0.201,0.210,0.116,0.076,�k,3.4,�L
2022/06/09,10:20,0.145,0.135,0.207,0.201,0.208,0.116,0.077,�k,3.5,�L
2022/06/09,10:30,0.145,0.135,0.207,0.201,0.210,0.117,0.076,�k�k��,3.7,�L
2022/06/09,10:40,0.145,0.135,0.206,0.202,0.208,0.117,0.076,�k�k��,4.0,�L
2022/06/09,10:50,0.144,0.134,0.206,0.201,0.210,0.115,0.076,�k�k��,4.1,�L
2022/06/09,11:00,0.144,0.135,0.207,0.203,0.208,0.116,0.075,�k�k��,3.5,�L
2022/06/09,11:10,0.143,0.134,0.205,0.200,0.210,0.114,0.075,�k�k��,3.2,�L
2022/06/09,11:20,0.144,0.133,0.206,0.202,0.207,0.116,0.074,�k�k��,3.5,�L
2022/06/09,11:30,0.143,0.134,0.206,0.200,0.209,0.115,0.074,�k,3.2,�L
2022/06/09,11:40,0.144,0.133,0.206,0.202,0.207,0.115,0.074,�k,3.0,�L
2022/06/09,11:50,0.143,0.133,0.207,0.201,0.210,0.116,0.075,�k,3.4,�L
2022/06/09,12:00,0.144,0.133,0.206,0.202,0.207,0.115,0.074,�k,3.9,�L
2022/06/09,12:10,0.143,0.134,0.206,0.201,0.210,0.115,0.074,�k,3.3,�L
2022/06/09,12:20,0.143,0.132,0.208,0.201,0.208,0.115,0.074,�k,3.4,�L
2022/06/09,12:30,0.143,0.133,0.207,0.201,0.208,0.114,0.074,�k,4.2,�L
2022/06/09,12:40,0.145,0.133,0.206,0.203,0.208,0.114,0.074,�k,4.1,�L
2022/06/09,12:50,0.143,0.133,0.207,0.201,0.209,0.114,0.074,�k,3.3,�L
2022/06/09,13:00,0.143,0.133,0.207,0.202,0.210,0.114,0.074,�k,3.2,��
2022/06/09,13:10,0.144,0.133,0.207,0.201,0.207,0.114,0.074,�k,3.2,��
2022/06/09,13:20,0.143,0.134,0.207,0.201,0.209,0.114,0.073,�k,3.6,��
2022/06/09,13:30,0.143,0.132,0.207,0.203,0.208,0.114,0.074,�k,3.6,��
2022/06/09,13:40,0.143,0.133,0.206,0.202,0.209,0.115,0.073,�k,3.5,�L
2022/06/09,13:50,0.144,0.133,0.207,0.204,0.210,0.115,0.073,�k,3.8,�L
2022/06/09,14:00,0.143,0.134,0.208,0.202,0.208,0.116,0.074,�k,3.1,�L
2022/06/09,14:10,0.145,0.134,0.209,0.204,0.209,0.114,0.074,�k,3.2,�L
2022/06/09,14:20,0.143,0.135,0.206,0.202,0.209,0.115,0.075,�k�k��,2.8,��
2022/06/09,14:30,0.144,0.134,0.208,0.203,0.207,0.115,0.073,�k,2.8,�L
2022/06/09,14:40,0.143,0.135,0.207,0.204,0.211,0.115,0.073,�k�k��,3.2,�L
2022/06/09,14:50,0.145,0.133,0.209,0.202,0.208,0.115,0.074,�k�k��,3.4,��
2022/06/09,15:00,0.144,0.133,0.209,0.204,0.209,0.114,0.074,�k�k��,2.7,��
2022/06/09,15:10,0.144,0.134,0.206,0.203,0.209,0.115,0.074,�k�k��,2.2,��
2022/06/09,15:20,0.144,0.134,0.208,0.204,0.208,0.115,0.075,�k��,2.6,��
2022/06/09,15:30,0.144,0.135,0.207,0.203,0.209,0.115,0.073,�k�k��,1.8,��
2022/06/09,15:40,0.145,0.133,0.209,0.203,0.210,0.114,0.074,�k�k��,1.9,��
2022/06/09,15:50,0.143,0.134,0.208,0.204,0.208,0.115,0.074,�k�k��,2.6,��
2022/06/09,16:00,0.144,0.133,0.208,0.203,0.208,0.114,0.074,�k,3.1,��
2022/06/09,16:10,0.143,0.134,0.208,0.205,0.210,0.115,0.073,�k,3.2,��
2022/06/09,16:20,0.145,0.134,0.209,0.203,0.208,0.114,0.074,�k,2.4,��
2022/06/09,16:30,0.145,0.134,0.209,0.205,0.211,0.115,0.074,�k,2.5,��
2022/06/09,16:40,0.145,0.134,0.209,0.204,0.208,0.115,0.074,�k�k��,2.6,��
2022/06/09,16:50,0.144,0.133,0.209,0.205,0.210,0.115,0.074,�k,2.2,��
2022/06/09,17:00,0.145,0.134,0.210,0.204,0.210,0.115,0.074,�k,2.2,��
2022/06/09,17:10,0.144,0.133,0.209,0.205,0.210,0.115,0.073,�k,2.5,��
2022/06/09,17:20,0.144,0.134,0.210,0.204,0.210,0.116,0.075,�k�k��,2.8,��
2022/06/09,17:30,0.144,0.134,0.208,0.205,0.209,0.116,0.074,�k�k��,2.3,��
2022/06/09,17:40,0.146,0.134,0.209,0.204,0.210,0.115,0.074,�k�k��,2.5,��
2022/06/09,17:50,0.145,0.134,0.207,0.206,0.210,0.115,0.074,�k�k��,2.9,��
2022/06/09,18:00,0.145,0.134,0.211,0.204,0.210,0.115,0.074,�k�k��,2.9,��
2022/06/09,18:10,0.144,0.135,0.208,0.204,0.209,0.115,0.074,�k�k��,2.6,��
2022/06/09,18:20,0.146,0.135,0.209,0.205,0.211,0.115,0.073,�k�k��,2.3,��
2022/06/09,18:30,0.145,0.135,0.210,0.205,0.209,0.116,0.074,�k�k��,1.7,��
2022/06/09,18:40,0.144,0.134,0.209,0.204,0.212,0.115,0.074,�k�k��,1.6,��
2022/06/09,18:50,0.145,0.134,0.208,0.206,0.209,0.115,0.074,�k,1.5,��
2022/06/09,19:00,0.144,0.133,0.209,0.204,0.210,0.115,0.075,�k��,1.6,��
2022/06/09,19:10,0.144,0.133,0.210,0.206,0.210,0.115,0.073,�k��,1.8,��
2022/06/09,19:20,0.144,0.134,0.209,0.204,0.211,0.116,0.074,�k��,2.1,��
2022/06/09,19:30,0.145,0.134,0.210,0.205,0.208,0.115,0.075,�k��,2.3,��
2022/06/09,19:40,0.144,0.134,0.209,0.205,0.210,0.116,0.074,�k��,1.8,��
2022/06/09,19:50,0.145,0.133,0.210,0.204,0.209,0.116,0.075,�k�k��,1.2,��
2022/06/09,20:00,0.144,0.135,0.209,0.206,0.209,0.115,0.073,�k�k��,1.2,��
2022/06/09,20:10,0.145,0.133,0.210,0.204,0.210,0.115,0.074,�k�k��,1.4,��
2022/06/09,20:20,0.144,0.134,0.210,0.205,0.210,0.115,0.074,�k��,2.0,��
2022/06/09,20:30,0.144,0.134,0.210,0.205,0.212,0.115,0.074,���k��,2.2,��
2022/06/09,20:40,0.145,0.134,0.210,0.204,0.210,0.115,0.075,���k��,1.9,��
2022/06/09,20:50,0.145,0.134,0.210,0.206,0.211,0.116,0.075,���k��,1.3,��
2022/06/09,21:00,0.146,0.135,0.209,0.205,0.210,0.115,0.075,��,1.7,��
2022/06/09,21:10,0.145,0.134,0.211,0.206,0.211,0.115,0.074,���k��,1.4,��
2022/06/09,21:20,0.145,0.134,0.209,0.205,0.210,0.116,0.074,��,2.1,��
2022/06/09,21:30,0.145,0.133,0.210,0.205,0.210,0.116,0.074,��,1.6,��
2022/06/09,21:40,0.145,0.135,0.211,0.205,0.210,0.115,0.074,��,0.7,��
2022/06/09,21:50,0.144,0.134,0.209,0.205,0.211,0.116,0.074,-,CALM,��
2022/06/09,22:00,0.145,0.134,0.211,0.206,0.209,0.116,0.075,-,CALM,��
2022/06/09,22:10,0.146,0.135,0.209,0.204,0.211,0.116,0.075,���k��,0.8,��
2022/06/09,22:20,0.144,0.134,0.211,0.206,0.211,0.116,0.074,���k��,0.9,��
2022/06/09,22:30,0.146,0.136,0.209,0.205,0.210,0.116,0.075,-,CALM,��
2022/06/09,22:40,0.145,0.134,0.209,0.206,0.211,0.117,0.073,���k��,0.8,��
2022/06/09,22:50,0.145,0.134,0.210,0.207,0.210,0.116,0.074,-,CALM,��
2022/06/09,23:00,0.145,0.136,0.210,0.205,0.211,0.116,0.075,-,CALM,��
2022/06/09,23:10,0.146,0.135,0.210,0.206,0.209,0.115,0.074,-,CALM,��
2022/06/09,23:20,0.144,0.135,0.210,0.205,0.212,0.117,0.075,-,CALM,��
2022/06/09,23:30,0.146,0.134,0.209,0.205,0.209,0.116,0.075,-,CALM,��
2022/06/09,23:40,0.145,0.135,0.211,0.204,0.211,0.116,0.074,-,CALM,��
2022/06/09,23:50,0.145,0.135,0.209,0.206,0.210,0.116,0.075,-,CALM,��
